KLRIVER36 Weather Reports


Display with metric or nautical units.
time (UTC)temp
F
wind
direction
speed
MPH
gust
MPH
rain 1hr
in
rain 24hr
in
rain mn
in
humidity
%
barometer
mb
20260504221052 76 103 1.0 9.0 0.00 0.00 0.00 44 1015.3
20260504220558 76 113 3.0 9.0 0.00 0.00 0.00 43 1015.2
20260504220059 77 188 1.0 7.0 0.00 0.00 0.00 44 1015.1
20260504215553 77 202 2.0 8.0 0.00 0.00 0.00 44 1015.2
20260504215056 76 196 3.0 8.0 0.00 0.00 0.00 44 1015.1
20260504214553 76 154 2.0 7.0 0.00 0.00 0.00 44 1015.0
20260504214053 76 183 3.0 7.0 0.00 0.00 0.00 44 1015.0
20260504213553 76 228 2.0 6.0 0.00 0.00 0.00 44 1015.0
20260504213125 77 134 1.0 4.0 0.00 0.00 0.00 44 1015.2
20260504212554 76 146 1.0 7.0 0.00 0.00 0.00 44 1015.0
20260504212055 77 136 2.0 7.0 0.00 0.00 0.00 43 1015.3
20260504211559 77 224 1.0 6.0 0.00 0.00 0.00 41 1015.4
20260504211053 77 195 2.0 6.0 0.00 0.00 0.00 41 1015.3
20260504210553 78 143 1.0 6.0 0.00 0.00 0.00 40 1015.1
20260504210058 78 131 1.0 5.0 0.00 0.00 0.00 39 1015.2
20260504205553 78 119 1.0 8.0 0.00 0.00 0.00 39 1015.2
20260504205053 78 89 1.0 8.0 0.00 0.00 0.00 39 1015.4
20260504204556 78 144 2.0 7.0 0.00 0.00 0.00 38 1015.5
20260504204053 78 268 3.0 7.0 0.00 0.00 0.00 39 1015.6
20260504203557 78 105 2.0 7.0 0.00 0.00 0.00 40 1015.7
20260504203117 79 180 1.0 6.0 0.00 0.00 0.00 38 1015.7
20260504202553 79 134 0.0 6.0 0.00 0.00 0.00 39 1015.8
20260504202054 78 189 3.0 6.0 0.00 0.00 0.00 38 1015.9
20260504201552 79 162 1.0 6.0 0.00 0.00 0.00 38 1016.1
20260504201057 79 0 1.0 6.0 0.00 0.00 0.00 39 1016.2
20260504200556 79 186 2.0 6.0 0.00 0.00 0.00 38 1016.4
20260504200057 79 174 3.0 7.0 0.00 0.00 0.00 37 1016.5
20260504195601 79 149 1.0 7.0 0.00 0.00 0.00 38 1016.6
20260504195059 80 117 2.0 5.0 0.00 0.00 0.00 37 1016.7
20260504194604 80 169 1.0 9.0 0.00 0.00 0.00 38 1016.7
20260504194056 80 173 1.0 9.0 0.00 0.00 0.00 39 1016.8
20260504193554 79 195 1.0 7.0 0.00 0.00 0.00 36 1016.9
20260504193111 79 163 3.0 8.0 0.00 0.00 0.00 38 1016.8
20260504192552 79 160 1.0 8.0 0.00 0.00 0.00 38 1016.9
20260504192053 79 157 1.0 6.0 0.00 0.00 0.00 38 1017.2
20260504191555 79 162 3.0 7.0 0.00 0.00 0.00 39 1017.0
20260504191054 78 204 3.0 7.0 0.00 0.00 0.00 39 1016.9
20260504190557 77 185 2.0 8.0 0.00 0.00 0.00 39 1017.0
20260504190115 77 179 3.0 8.0 0.00 0.00 0.00 39 1017.3
20260504185554 78 96 4.0 8.0 0.00 0.00 0.00 39 1017.3
20260504185053 78 201 3.0 7.0 0.00 0.00 0.00 40 1017.3
20260504184606 77 186 3.0 7.0 0.00 0.00 0.00 40 1017.4
20260504184053 77 150 3.0 9.0 0.00 0.00 0.00 41 1017.3
20260504183559 77 141 4.0 9.0 0.00 0.00 0.00 41 1017.5
20260504183056 77 191 2.0 6.0 0.00 0.00 0.00 41 1017.5
20260504182557 77 203 3.0 8.0 0.00 0.00 0.00 41 1017.6
20260504182055 77 161 3.0 8.0 0.00 0.00 0.00 43 1017.5
20260504181555 77 182 2.0 6.0 0.00 0.00 0.00 42 1017.5
20260504181054 76 113 3.0 6.0 0.00 0.00 0.00 42 1017.5
20260504180553 76 179 3.0 6.0 0.00 0.00 0.00 42 1017.5
20260504180055 77 129 2.0 8.0 0.00 0.00 0.00 42 1017.6
20260504175556 77 162 1.0 8.0 0.00 0.00 0.00 42 1017.5
20260504175057 76 179 3.0 9.0 0.00 0.00 0.00 43 1017.4
20260504174602 77 203 2.0 9.0 0.00 0.00 0.00 42 1017.6
20260504174053 76 178 2.0 6.0 0.00 0.00 0.00 42 1017.7
20260504173552 77 160 2.0 7.0 0.00 0.00 0.00 43 1017.7
20260504173058 76 171 1.0 9.0 0.00 0.00 0.00 45 1017.6
20260504172555 76 205 3.0 9.0 0.00 0.00 0.00 45 1017.7
20260504172101 76 180 1.0 9.0 0.00 0.00 0.00 44 1017.5
20260504171555 76 46 3.0 9.0 0.00 0.00 0.00 46 1017.7
20260504171057 76 163 3.0 8.0 0.00 0.00 0.00 44 1017.7
20260504170554 75 180 3.0 8.0 0.00 0.00 0.00 45 1017.7
20260504151053 73 190 1.0 4.0 0.00 0.00 0.00 47 1018.4
20260504150553 74 0 0.0 3.0 0.00 0.00 0.00 49 1018.4
20260504141056 69 205 0.0 2.0 0.00 0.00 0.00 59 1018.5
20260504140556 68 0 0.0 2.0 0.00 0.00 0.00 60 1018.4
20260504140109 68 224 0.0 2.0 0.00 0.00 0.00 60 1018.5
20260504130555 64 243 0.0 1.0 0.00 0.00 0.00 72 1018.6
20260504110554 55 0 0.0 0.0 0.00 0.00 0.00 86 1017.7
20260504110117 55 0 0.0 0.0 0.00 0.00 0.00 86 1017.6
20260504100555 57 0 0.0 0.0 0.00 0.00 0.00 83 1017.8
20260504100104 57 0 0.0 0.0 0.00 0.00 0.00 84 1018.0
20260504090119 56 0 0.0 0.0 0.00 0.00 0.00 84 1018.1
20260504081556 57 0 0.0 0.0 0.00 0.00 0.00 83 1017.7
20260504081054 57 0 0.0 0.0 0.00 0.00 0.00 82 1017.8
20260504080556 57 0 0.0 0.0 0.00 0.00 0.00 81 1017.9
20260504060103 60 0 0.0 0.0 0.00 0.00 0.00 76 1019.1
20260504050554 61 0 0.0 0.0 0.00 0.00 0.00 72 1019.4
20260504050107 61 0 0.0 0.0 0.00 0.00 0.00 71 1019.5
20260504045557 62 0 0.0 0.0 0.00 0.00 0.00 71 1019.5
20260504045054 62 0 0.0 1.0 0.00 0.00 0.00 70 1019.5
20260504044603 63 0 0.0 2.0 0.00 0.00 0.00 70 1019.5
20260504044054 63 0 0.0 2.0 0.00 0.00 0.00 69 1019.6
20260504043555 63 0 0.0 2.0 0.00 0.00 0.00 69 1019.6
20260504043056 63 0 0.0 2.0 0.00 0.00 0.00 69 1019.7
20260504042554 63 205 0.0 2.0 0.00 0.00 0.00 70 1019.6
20260504042053 63 0 0.0 2.0 0.00 0.00 0.00 70 1019.6
20260504041556 63 213 1.0 2.0 0.00 0.00 0.00 70 1019.7
20260504041053 63 218 1.0 2.0 0.00 0.00 0.00 70 1019.8
20260504040553 63 195 0.0 2.0 0.00 0.00 0.00 70 1019.7
20260504040108 63 195 0.0 3.0 0.00 0.00 0.00 70 1019.7
20260504035555 63 0 1.0 3.0 0.00 0.00 0.00 70 1019.6
20260504035055 63 193 1.0 3.0 0.00 0.00 0.00 70 1019.7
20260504034603 63 191 0.0 2.0 0.00 0.00 0.00 69 1019.6
20260504034054 63 0 0.0 2.0 0.00 0.00 0.00 69 1019.6
20260504033554 63 188 0.0 2.0 0.00 0.00 0.00 70 1019.6
20260504033113 62 0 0.0 1.0 0.00 0.00 0.00 70 1019.6
20260504032556 62 0 0.0 1.0 0.00 0.00 0.00 70 1019.7
20260504032054 63 0 0.0 0.0 0.00 0.00 0.00 69 1019.6
20260504031556 63 0 0.0 0.0 0.00 0.00 0.00 68 1019.7
20260504031054 63 0 0.0 0.0 0.00 0.00 0.00 67 1019.7
20260504030555 64 0 0.0 0.0 0.00 0.00 0.00 67 1019.6
20260504030056 63 0 0.0 0.0 0.00 0.00 0.00 66 1019.5
20260504025552 63 0 0.0 0.0 0.00 0.00 0.00 66 1019.5
20260504025053 64 0 0.0 0.0 0.00 0.00 0.00 66 1019.5
20260504024605 64 0 0.0 0.0 0.00 0.00 0.00 65 1019.5
20260504024052 64 0 0.0 0.0 0.00 0.00 0.00 64 1019.5
20260504023553 65 0 0.0 0.0 0.00 0.00 0.00 64 1019.4
20260504023055 65 0 0.0 0.0 0.00 0.00 0.00 63 1019.3
20260504022552 65 0 0.0 0.0 0.00 0.00 0.00 64 1019.4
20260504022053 65 0 0.0 0.0 0.00 0.00 0.00 62 1019.4
20260504021554 65 0 0.0 0.0 0.00 0.00 0.00 62 1019.3
20260504021054 65 0 0.0 0.0 0.00 0.00 0.00 61 1019.2
20260504020553 65 0 0.0 0.0 0.00 0.00 0.00 61 1019.2
20260504020057 66 0 0.0 0.0 0.00 0.00 0.00 60 1019.1
20260504015553 66 0 0.0 0.0 0.00 0.00 0.00 61 1018.9
20260504015056 66 0 0.0 0.0 0.00 0.00 0.00 60 1019.0
20260504014558 66 0 0.0 0.0 0.00 0.00 0.00 58 1018.9
20260504014053 66 0 0.0 2.0 0.00 0.00 0.00 58 1019.0
20260504013552 66 0 0.0 2.0 0.00 0.00 0.00 58 1018.9
20260504013053 66 0 0.0 2.0 0.00 0.00 0.00 57 1018.8
20260504012552 67 0 0.0 1.0 0.00 0.00 0.00 55 1018.8
20260504012052 67 0 0.0 1.0 0.00 0.00 0.00 55 1018.7
20260504011554 68 0 0.0 0.0 0.00 0.00 0.00 54 1018.8
20260504011051 68 0 0.0 0.0 0.00 0.00 0.00 54 1018.6
20260504010551 68 0 0.0 0.0 0.00 0.00 0.00 53 1018.6
20260504010059 68 0 0.0 0.0 0.00 0.00 0.00 50 1018.6
20260504005555 69 0 0.0 0.0 0.00 0.00 0.00 50 1018.6
20260504005055 69 0 0.0 0.0 0.00 0.00 0.00 49 1018.6
20260504004555 70 0 0.0 0.0 0.00 0.00 0.00 48 1018.5
20260504004052 70 0 0.0 0.0 0.00 0.00 0.00 47 1018.5
20260504003555 71 0 0.0 0.0 0.00 0.00 0.00 47 1018.4
20260504003053 72 0 0.0 0.0 0.00 0.00 0.00 43 1018.4
20260504002552 72 0 0.0 2.0 0.00 0.00 0.00 42 1018.3
20260504002052 73 0 0.0 2.0 0.00 0.00 0.00 40 1018.4
20260504001611 73 288 0.0 2.0 0.00 0.00 0.00 40 1018.3
20260504001052 73 246 0.0 2.0 0.00 0.00 0.00 41 1018.3
20260504000552 73 250 0.0 1.0 0.00 0.00 0.00 39 1018.2
20260504000057 74 0 0.0 3.0 0.00 0.00 0.00 39 1018.2
20260503235555 74 0 0.0 4.0 0.00 0.00 0.00 39 1018.3
20260503235055 74 262 1.0 4.0 0.00 0.00 0.00 39 1018.3
20260503234555 74 1 1.0 2.0 0.00 0.00 0.00 39 1018.4
20260503234055 74 0 0.0 2.0 0.00 0.00 0.00 38 1018.4
20260503233553 74 0 0.0 4.0 0.00 0.00 0.00 37 1018.5
20260503233056 75 8 1.0 4.0 0.00 0.00 0.00 38 1018.5
20260503232556 75 360 1.0 5.0 0.00 0.00 0.00 37 1018.5
20260503232052 75 243 0.0 5.0 0.00 0.00 0.00 38 1018.6
20260503231556 75 26 1.0 5.0 0.00 0.00 0.00 37 1018.6
20260503231053 75 292 1.0 4.0 0.00 0.00 0.00 37 1018.7
20260503230552 76 360 1.0 4.0 0.00 0.00 0.00 36 1018.7
20260503230058 76 0 1.0 5.0 0.00 0.00 0.00 37 1018.7
20260503225555 76 1 1.0 5.0 0.00 0.00 0.00 36 1018.6
20260503225052 76 210 1.0 5.0 0.00 0.00 0.00 37 1018.6
20260503224556 76 27 2.0 4.0 0.00 0.00 0.00 36 1018.7
20260503224055 76 0 1.0 5.0 0.00 0.00 0.00 36 1018.8
20260503223551 76 281 1.0 5.0 0.00 0.00 0.00 36 1018.8
20260503223058 76 252 1.0 5.0 0.00 0.00 0.00 36 1018.7
20260503222556 76 224 2.0 5.0 0.00 0.00 0.00 38 1018.8
20260503222052 75 4 1.0 5.0 0.00 0.00 0.00 37 1018.8
20260503221555 75 0 2.0 5.0 0.00 0.00 0.00 38 1018.9